Regional Weather Roundup
Issued by NWS Wakefield, VA

Home | Current Version | Previous Version | Text Only | Print | Product List | Glossary On
Versions: 1 2 3 4 5 6 7 8 9 10 11 12 13 14 15 16 17 18 19 20 21 22 23 24 25 26 27 28 29 30 31 32 33 34 35 36 37 38 39 40 41 42 43 44 45 46 47 48 49 50
000
ASUS41 KAKQ 201515
RWRAKQ

REGIONAL WEATHER ROUNDUP
NATIONAL WEATHER SERVICE WAKEFIELD VA
1100 AM EDT THU JUL 20 2017

Note: "fair" indicates few or no clouds below 12,000 feet with no
significant weather and/or obstructions to visibility. * = Denotes
station may not report precipitation (e.g., rain,snow,etc.),
thunder or fog.

VAZ042-051-052>054-056-201600-
NORTHERN VIRGINIA

CITY           SKY/WX    TMP DP  RH WIND       PRES   REMARKS
WASH NATIONAL  PTSUNNY   92  72  51 NW8       30.02F HX  99
DULLES         PTSUNNY   88  71  57 NW5       30.04F
FORT BELVOIR   SUNNY     93  71  48 NW3       30.02F HX 100
QUANTICO       PTSUNNY   87  78  74 S6        30.03F HX 100
FREDERICKSBRG* MOSUNNY   90  73  57 CALM      30.03F HX  98
STAFFORD*      SUNNY     89  73  58 CALM      30.08S HX  97
WARRENTON      SUNNY     92  67  44 CALM      30.05S HX  96
CULPEPER*      SUNNY     91  73  56 CALM      30.05F HX  98
MANASSAS*      SUNNY     90  72  55 NW6       30.04F HX  97
LEESBURG*      SUNNY     90  73  58 W5        30.06S HX  98
WINCHESTER     MOSUNNY   86  70  58 SW6       30.07S
FRONT ROYAL*   SUNNY     88  70  55 SE6       30.07F
LURAY*         SUNNY     84  70  61 CALM      30.09F
$$

VAZ048-049-060>072-079>083-201600-
CENTRAL AND SOUTH CENTRAL VIRGINIA

CITY           SKY/WX    TMP DP  RH WIND       PRES   REMARKS
RICHMOND       CLOUDY    91  71  51 W7        30.04S HX  97
CHESTERFIELD*  NOT AVBL
PETERSBURG*    CLOUDY    88  71  56 CALM      30.06S
HANOVER        CLOUDY    89  69  51 VRB3      30.05F
TAPPAHANNOCK*  CLOUDY    90  63  40 CALM      30.05S
QUINTON*       FAIR      88  75  65 W3        30.05R HX  97
CHARLOTTSVILLE SUNNY     90  68  48 VRB3      30.07S
GORDONSVILLE*  SUNNY     91  71  52 CALM      30.05S HX  97
ORANGE*        SUNNY     88  70  55 N3        30.06S
LOUISA*        SUNNY     90  66  45 CALM      30.06S
BUMPASS*       FAIR      89  73  60 E3        30.05F HX  97
FARMVILLE*     CLOUDY    89  63  41 CALM      30.05F
CREWE*         FAIR      90  66  44 W3        30.07S
FORT PICKETT*  FAIR     N/A N/A N/A W3        30.07S
CHASE CITY*    FAIR      87  72  60 W3        30.07S
CLARKSVILLE*   FAIR      86  73  66 CALM      30.07S
SOUTH HILL*    CLOUDY    87  74  64 CALM      30.13S HX  95
LAWRENCEVILLE* FAIR      89  73  60 CALM      30.07S HX  96
EMPORIA*       CLOUDY    88  70  55 CALM      30.07S
$$

VAZ088>098-201600-
SOUTHEAST VIRGINIA

CITY           SKY/WX    TMP DP  RH WIND       PRES   REMARKS
NORFOLK        SUNNY     90  73  57 VRB6      30.04S HX  98
VIRGINIA BEACH MOSUNNY   89  74  60 SW5       30.04R HX  98
NORFOLK NAVAL  MOSUNNY   89  72  56 W6        30.06R HX  96
WEST POINT*    SUNNY     90  70  51 NW5       30.06S
SALUDA*        FAIR      86  79  78 N6        30.04R HX 100
NEWPORT NEWS   SUNNY     89  72  56 VRB5      30.05R HX  96
LANGLEY AFB    SUNNY     89  75  64 W6        30.04R HX  99
FORT EUSTIS    SUNNY     92  74  56 W3        30.03R HX 102
WILLIAMSBURG*  SUNNY     91  73  55 SW3       30.06R HX 100
HR EXEC AP*    FAIR      88  75  66 W3        30.02S HX  97
FRANKLIN*      SUNNY     88  73  62 CALM      30.06S HX  96
US460-WAKEFLD  SUNNY     90  73  57 NW3       30.05S HX  98
$$

VAZ020-022-025-037-045-201600-
WEST CENTRAL AND SOUTHWEST VIRGINIA

CITY           SKY/WX    TMP DP  RH WIND       PRES   REMARKS
STAUNTON*      SUNNY     84  67  57 CALM      30.14R
WAYNESBORO*    SUNNY     85  68  57 CALM      30.13S
HOT SPRINGS VA SUNNY     73  59  60 W9        30.28F
LYNCHBURG      MOSUNNY   86  67  52 VRB3      30.10F
DANVILLE       CLOUDY    85  74  69 W5        30.09R
SOUTH BOSTON*  FAIR      86  70  58 CALM      30.07F
MARTINSVILLE   CLOUDY    86  69  55 NE3       30.14S
ROANOKE        SUNNY     87  68  52 VRB5      30.15S
BLACKSBURG     SUNNY     83  67  58 W6        30.23R
DUBLIN*        SUNNY     84  61  45 N3        30.21S
MARION*          N/A    N/A N/A N/A MISG        N/A
HILLSVILLE*    SUNNY     80  59  49 N8        30.23S
RICHLANDS*     FAIR      80  65  60 W3        30.24F
WISE*          PTSUNNY   79  64  61 W6        30.26S
ABINGDON*      SUNNY     82  67  60 N3        30.22S
$$

MDZ021>025-VAZ099-100-201600-
SOUTHERN MARYLAND AND THE DELMARVA PENINSULA

CITY           SKY/WX    TMP DP  RH WIND       PRES   REMARKS
PATUXENT RIVER PTSUNNY   88  73  61 CALM      30.02F HX  95
BAY BRIDGE APT SUNNY     86  75  70 CALM      30.01F HX  95
LEONARDTOWN    MOSUNNY  N/A N/A N/A CALM      30.04F
DOVER          MOSUNNY   89  88  98 W5        29.99S HX 123
GEORGETOWN     SUNNY     89  76  65 SW6       30.02S HX 100
EASTON         SUNNY     90  75  62 W3        30.05S HX 100
CAMBRIDGE      SUNNY     90  75  62 VRB5      30.02S HX 100
SALISBURY      NOT AVBL
OCEAN CITY     SUNNY     87  78  74 S6        30.02S HX 100
WALLOPS ISLAND PTSUNNY   90  76  63 SW6       30.03S HX 101
ACCOMACK*      SUNNY     90  74  58 W5        30.04R HX  99
$$

NCZ012>017-030>032-201600-
NORTH CENTRAL AND EASTERN NORTH CAROLINA

CITY           SKY/WX    TMP DP  RH WIND       PRES   REMARKS
ROANOKE RAPIDS FAIR      86  73  66 CALM      30.07R
RALEIGH        MOSUNNY   90  70  51 NW3       30.09R HX  95
ELIZABETH CITY MOSUNNY   86  76  71 S3        30.06S HX  96
AHOSKIE*         N/A     84  75  73 CALM      30.06S
EDENTON*       MOSUNNY   87  73  62 CALM      30.07R HX  95
CURRITUCK*     MOSUNNY   87  73  62 CALM      30.06S
KILL DEVIL HLS MOSUNNY   84  73  70 CALM      30.05R
MANTEO         MOSUNNY   82  72  71 W3        30.07R
CAPE HATTERAS  PTSUNNY   82  73  74 CALM      30.07S
TARBORO*       NOT AVBL
GOLDSBORO      SUNNY     87  77  73 CALM      30.06R HX  98
WASHINGTON     SUNNY     86  72  62 CALM      30.07R
GREENVILLE     SUNNY     86  73  66 CALM      30.08S
NEW BERN       SUNNY     86  72  62 VRB3      30.08S
WILMINGTON     SUNNY     85  72  65 VRB3      30.08S
$$

VAZ048-201600-
ELSEWHERE

CITY           SKY/WX    TMP DP  RH WIND       PRES   REMARKS
HARRISBURG PA  MOSUNNY   86  74  67 NW6       30.02S
BALTIMORE      PTSUNNY   92  72  51 W8        30.01S HX  99
ANNAPOLIS      SUNNY     87  79  76 NE3       30.00F HX 101
ANDREWS AFB    MOSUNNY   92  70  48 NW6       30.02S HX  97
PHILADELPHIA   PTSUNNY   89  71  55 SW10      29.99F HX  95
HENDERSON NC   SUNNY     86  68  55 CALM      30.09R
GREENSBORO     CLOUDY    88  72  58 VRB5      30.10S
ROCKY MOUNT    SUNNY     87  73  62 CALM      30.07R
$$

VAZ100-201600-
MARINE

STATION/POSITION TIME  TEMP    WIND        PRES    WAVE   SWELL
                       AIR SEA DIR/SP/G            HT/PER HT/PER
                 (UTC) (F)     (DEG/KT/KT) (MB)    (FT/S) (FT/S)
BRANDYWINE LGT   1442   81     260/  5/  6 1016.6S
CAPE MAY NJ      1448   82 75  270/  4/  5 1015.9S
LEWES DE         1448   85 72  330/  5/  6 1016.2R
15NM E FENWICK I 1450   77 77  200/ 10/ 12 1017.1R   2/15   2/15
OCEAN-CITY-INLET 1448   75 72  210/  7/  9 1017.1S
WACHAPREAGUE VA  1448   91 84  220/  1/  7 1016.9S
THOMAS POINT MD  1500   83 82  160/  5/  5   N/A
GOOSES REEF MD   1500   85 85  200/  4/  4 1017.4    0
COVE POINT MD    1448   84     130/  4/  5 1017.4R
SOLOMONS ISLAND  1448   90 84  240/  4/  5   N/A
BISHOPS HEAD MD  1448   83 85  240/  6/  7 1017.1R
PINEY POINT MD   1448          340/  5/  5   N/A
POTOMAC MD       1500   83 85  300/  4/  4 1016.1    1
CAMBRIDGE MD     1448   89 86              1017.5S
LEWISETTA VA     1448   86 84  100/  2/  3 1016.9S
RAPPAHANNOCK LGT 1448          210/  6/  7 1017.8R
STINGRAY PT      1500   85 85  330/  2/  4 1018.0    0
YORK RVR RNG VA  1448   86     260/  7/  7 1017.6R
YORKTOWN VA      1448   86 83  320/  2/  5 1017.0R
JAMESTOWN VA     1500      87  310/  6/  8   N/A     0
DOMINION TERM VA 1448   83     230/  2/  3 1017.6R
KIPTOPEKE VA     1448      79  240/  3/  4   N/A
CHES BAY BRIDGE  1448   82 80  280/  4/  4 1017.2R
CAPE HENRY VA    1448   85      70/  4/  5   N/A
WILLOUBY STN VA  1448   82     240/  7/  7 1017.4R
S CRANEY ISL VA  1448   85     220/  2/  4 1017.2R
CAPE HENRY BUOY  1500      76                N/A     2/ 7   2/12
1ST LANDING BUOY 1500   83 81              1017.3    1
64NM E OF VA BCH 1450   79 80  260/  4/  6 1018.4R   2/ 7   2/ 7
DUCK PIER NC     1448   76 64  130/  6/  7 1017.5R
44100 DUCK FRF   1405      78                N/A     2/15   2/15
44056 DUCK FRF   1500      72                N/A     2/15   2/15
OREGON INLET NC  1436   80 81  210/  4/  5 1017.8F
HATTERAS NC      1448   81 78  320/  4/  5 1018.1S
DIAMOND SHLS NC  1450   81 84   20/  4/  4 1018.3R   2/ 6   2/ 6
CAPE LOOKOUT NC  1500   81     140/  5/  5 1018.2R
$$



USA.gov is the U.S. government's official web portal to all federal, state and local government web resources and services.